Location: Kampong Paya Jaras Dalam
(3.1833°N, 101.5500°E)
Time: 04:33:57
(UTC+00:00)

NOAA 6 - Pass Details

Date: 15 May 2026
Orbit: 767 x 780 km, 98.6° (Epoch: 7 June)

Event Time Altitude Azimuth Distance (km) Brightness Sun altitude
Exits shadow 12:50:29 16° 182° (S) 1,898 5.8 -22.5°
Maximum altitude 12:54:25 59° 258° (WSW) 879 4.5 -23.4°
Drops below altitude 10° 12:59:24 10° 337° (NNW) 2,298 7.0 -24.5°
Sets 13:01:44 0° 341° (NNW) 3,223 7.8 -25.1°
